Regional Weather Roundup
Issued by NWS

Home | Current Version | Previous Version | Graphics & Text | Print | Product List | Glossary On
Versions: 1 2 3 4 5 6 7 8 9 10 11 12 13 14 15 16 17 18 19 20 21 22 23 24 25 26 27
000
ASUS45 KCYS 061410
RWRWY

WYOMING REGIONAL WEATHER ROUNDUP
NATIONAL WEATHER SERVICE CHEYENNE WY
700 AM MST TUE DEC 06 2016

NOTE:  "FAIR" INDICATES FEW OR NO CLOUDS BELOW 12,000 FEET
WITH NO SIGNIFICANT WEATHER AND/OR OBSTRUCTIONS TO VISIBILITY.

WYZ001-061500-
YELLOWSTONE NATIONAL PARK

CITY           SKY/WX    TMP DP  RH WIND       PRES   REMARKS
LK YELLOWSTONE   N/A     -8 -11  86 NW5       29.77F WCI -19
W YELLOWSTONE  NOT AVBL

$$
WYZ002>013-054>058-071-098>099-061500-
NORTHERN WYOMING

CITY           SKY/WX    TMP DP  RH WIND       PRES   REMARKS
JACKSON        FAIR     -20 -26  76 N5        29.90S WCI -33
CODY           FAIR      -4  -8  83 S6        29.92S WCI -16
GREYBULL       FAIR       5   0  79 CALM      29.99S
WORLAND        FAIR      -1  -5  82 SW6       29.98R WCI -13
SHERIDAN       FAIR       2  -2  83 NW10      30.01S WCI -14
BUFFALO        CLOUDY     5  -1  76 SW3       29.93F
GILLETTE       FAIR      -5  -8  87 W9        29.97R WCI -22
HULETT         FLURRIES   5   1  85 MISG      29.97S
NEWCASTLE      FAIR       5   0  78 NW10      29.97S WCI -10

$$
WYZ014>020-022>026-101>103-061500-
CENTRAL WYOMING

CITY           SKY/WX    TMP DP  RH WIND       PRES   REMARKS
BIG PINEY      FAIR     -19 -24  77 E5        29.88S WCI -32
PINEDALE       FAIR     -20 -26  76 NW8       29.87F WCI -39
DUBOIS         FAIR      -6 -15  65 W22       29.79F WCI -31
LANDER         FAIR       2 -11  54 E5        29.89S WCI  -8
RIVERTON       FAIR       0  -8  69 CALM      29.90S
CASPER         FAIR      -5 -11  75 W9        29.91R WCI -22
DOUGLAS        FAIR     -11 -17  75 NW5       29.94R WCI -23

$$
WYZ021-027>030-104>119-061500-
SOUTHERN WYOMING

CITY           SKY/WX    TMP DP  RH WIND       PRES   REMARKS
EVANSTON       FAIR       4 -15  41 E8        29.79F WCI  -9
KEMMERER         N/A     -9 -17  70 N13       29.81F WCI -30
FORT BRIDGER   FAIR      -2 -15  53 CALM      29.86R
ROCK SPRINGS   FAIR      -3 -14  59 E3        29.86S
DIXON          FAIR      -2 -12  62 E9        29.94S WCI -18
RAWLINS        FAIR      -6 -15  65 CALM      29.87S
SARATOGA       FAIR       1 -13  51 S13       29.87S WCI -16
LARAMIE        FAIR      -7 -16  65 SE9       29.83S WCI -24
CHEYENNE       FAIR      10 -15  31 W15       29.87S WCI  -7
TORRINGTON     FAIR       6   1  80 W7        29.96R WCI  -6
PINE BLUFFS    FAIR       1  -8  66 MISG      29.94S

$$




USA.gov is the U.S. government's official web portal to all federal, state and local government web resources and services.